TimeAST,TemperatureF,Dew PointF,Humidity,Sea Level PressureIn,VisibilityMPH,Wind Direction,Wind SpeedMPH,Gust SpeedMPH,PrecipitationIn,Events,Conditions,WindDirDegrees,DateUTC
12:00 AM,80.6,73.4,79,29.89,6.2,ESE,6.9,-,N/A,,Partly Cloudy,110,2012-10-21 04:00:00
1:00 AM,80.6,73.4,79,29.86,6.2,East,6.9,-,N/A,,Partly Cloudy,90,2012-10-21 05:00:00
2:00 AM,80,73,75,29.86,28,ESE,6.9,,,,Scattered Clouds,110,2012-10-21 06:00:00
2:00 AM,80.6,73.4,79,29.83,6.2,ESE,6.9,-,N/A,,Partly Cloudy,110,2012-10-21 06:00:00
3:00 AM,80.6,73.4,79,29.83,6.2,East,6.9,-,N/A,,Partly Cloudy,100,2012-10-21 07:00:00
5:00 AM,80,74,76,29.86,28,East,10.4,,,,Scattered Clouds,90,2012-10-21 09:00:00
7:00 AM,80.6,75.2,84,29.89,6.2,Variable,2.3,-,N/A,,Scattered Clouds,0,2012-10-21 11:00:00
8:00 AM,80,75,81,29.91,6,SE,5.8,,,Rain,Light Rain Showers,130,2012-10-21 12:00:00
8:00 AM,80.6,75.2,84,29.89,6.2,SE,5.8,-,N/A,Rain,Light Rain Showers,130,2012-10-21 12:00:00
9:00 AM,84.2,75.2,74,29.92,6.2,ESE,6.9,-,N/A,,Scattered Clouds,110,2012-10-21 13:00:00
10:00 AM,84.2,75.2,74,29.92,6.2,SE,9.2,-,N/A,,Scattered Clouds,140,2012-10-21 14:00:00
11:00 AM,85,75,66,29.91,37,ESE,8.1,,,,,120,2012-10-21 15:00:00
11:00 AM,84.2,75.2,74,29.89,6.2,ESE,8.1,-,N/A,Rain,Light Rain Showers,120,2012-10-21 15:00:00
12:00 PM,86.0,75.2,70,29.89,6.2,SSE,13.8,-,N/A,,Mostly Cloudy,150,2012-10-21 16:00:00
1:00 PM,86.0,75.2,70,29.86,6.2,South,12.7,-,N/A,,Mostly Cloudy,170,2012-10-21 17:00:00
2:00 PM,86,74,60,29.85,16,SE,8.1,,,,Partly Cloudy,130,2012-10-21 18:00:00
2:00 PM,86.0,75.2,70,29.83,6.2,ESE,8.1,-,N/A,,Scattered Clouds,120,2012-10-21 18:00:00
3:00 PM,86.0,75.2,70,29.83,6.2,SE,8.1,-,N/A,,Mostly Cloudy,140,2012-10-21 19:00:00
4:00 PM,84.2,73.4,70,29.83,6.2,ESE,77.1,-,N/A,,Scattered Clouds,120,2012-10-21 20:00:00
5:00 PM,84.2,75.2,74,29.83,6.2,ESE,6.9,-,N/A,,Scattered Clouds,110,2012-10-21 21:00:00
6:00 PM,82.4,73.4,74,29.83,6.2,East,8.1,-,N/A,,Scattered Clouds,100,2012-10-21 22:00:00
7:00 PM,82.4,73.4,74,29.86,6.2,ESE,6.9,-,N/A,,Scattered Clouds,110,2012-10-21 23:00:00
8:00 PM,82,74,72,29.87,31,SE,6.9,,,,Scattered Clouds,140,2012-10-22 00:00:00
8:00 PM,82.4,75.2,79,29.86,6.2,ESE,6.9,-,N/A,,Partly Cloudy,120,2012-10-22 00:00:00
9:00 PM,78.8,73.4,83,29.86,6.2,ESE,4.6,-,N/A,,Partly Cloudy,110,2012-10-22 01:00:00
10:00 PM,80.6,75.2,84,29.86,6.2,Variable,3.5,-,N/A,,Partly Cloudy,0,2012-10-22 02:00:00
11:00 PM,80,74,77,29.88,19,East,5.8,,,,Partly Cloudy,100,2012-10-22 03:00:00
11:00 PM,80.6,73.4,79,29.86,6.2,East,5.8,-,N/A,,Partly Cloudy,100,2012-10-22 03:00:00